This is the latest recevied weather packets stored in our database for station/object IT9GFD-13. If no packets are shown the sender has not sent any weather packets the latest 10 day(s).
| Time | Temp. | Humidity | Pressure | Rain* | Wind** | Luminosity | Snow |
|---|---|---|---|---|---|---|---|
| 1778076017 | 19.44° C | 82% | 1016.3 hPa | 0 mm | - | - | - |
| 1778075417 | 19.44° C | 82% | 1016.4 hPa | 0 mm | - | - | - |
| 1778073017 | 18.89° C | 83% | 1016.6 hPa | 0 mm | - | - | - |
| 1778072437 | 19.44° C | 82% | 1016.9 hPa | 0 mm | - | - | - |
| 1778071817 | 19.44° C | 82% | 1016.8 hPa | 0 mm | - | - | - |
| 1778067017 | 19.44° C | 79% | 1017.5 hPa | 0 mm | - | - | - |
| 1778063417 | 19.44° C | 82% | 1017.4 hPa | 0 mm | - | - | - |
| 1778062816 | 19.44° C | 82% | 1017.5 hPa | 0 mm | - | - | - |
| 1778062217 | 19.44° C | 82% | 1017.5 hPa | 0 mm | - | - | - |
| 1778060417 | 18.89° C | 83% | 1017.7 hPa | 0 mm | - | - | - |
| 1778059816 | 18.89° C | 82% | 1017.7 hPa | 0 mm | - | - | - |
| 1778050816 | 18.89° C | 84% | 1017.8 hPa | 0 mm | - | - | - |
| 1778049616 | 18.33° C | 84% | 1017.8 hPa | 0 mm | - | - | - |
| 1778048416 | 17.78° C | 84% | 1017.6 hPa | 0 mm | - | - | - |
| 1778047237 | 17.22° C | 86% | 1017.1 hPa | 0 mm | - | - | - |
| 1778045436 | 17.22° C | 87% | 1016.8 hPa | 0 mm | - | - | - |
| 1778037637 | 16.67° C | 87% | 1016.4 hPa | 0 mm | - | - | - |
| 1778033416 | 17.22° C | 85% | 1016.6 hPa | 0 mm | - | - | - |
| 1778026236 | 17.22° C | 87% | 1017.3 hPa | 0 mm | - | - | - |
| 1778025618 | 17.22° C | 87% | 1017.4 hPa | 0 mm | - | - | - |
| 1778024418 | 17.22° C | 87% | 1017.6 hPa | 0 mm | - | - | - |
| 1778023817 | 17.22° C | 87% | 1017.6 hPa | 0 mm | - | - | - |
| 1778020818 | 17.22° C | 87% | 1018.1 hPa | 0 mm | - | - | - |
| 1778020217 | 17.22° C | 87% | 1018.2 hPa | 0 mm | - | - | - |
| 1778019037 | 17.22° C | 87% | 1018.4 hPa | 0 mm | - | - | - |
* Rain latest hour (hover to see other rain measurements)
** Current wind speed in m/s (hover to see current wind gust speed)